STARLINK-1817, 46715

Orbit data source: Space-Track

STARLINK-1817, 46715 is a payload satellite owned by SpaceX/Seattle (US) in LEO that was launched on Sun, 18 Oct 2020 UTC via an FALCON 9 launch vehicle from the Air Force Eastern Test Range (AFETR). Payload-class satellites include a variety of spacecraft equipped with specific instruments for various scientific and technological missions. These include communications satellites like Starlink; space stations such as the ISS; scientific satellites like the Hubble; Earth observation satellites from companies like Planet Labs, Umbra, and HawkEye 360; GPS; miniature CubeSats for education and research; and military/defense satellites.

Loading next visibility...
Identifier
46715, 2020-073AX
Orbit
LEO
Country
Flag of USUS
Related business
Manufacturer
SpaceX/Seattle
Mission
Operational Commercial Communications
Bus & Motor
STARLINK, Unknown motor
Mass
260 kg wet, ~248 kg dry
Launch date (UTC)
2020-10-18 (5 years ago)
Launch vehicle
FALCON 9
Launch site
Air Force Eastern Test Range (AFETR)
Object type
Payload
Rocket body
Debris
Shape & HBR
Box + 1 Pan, 10.1 m
Radar Cross Section
13.562 m², Large (>1 m²)

Expand to show TLE details & history
Last TLE update: 17 hours ago

TLE from 17 hours ago
0 STARLINK-1817
1 46715U 20073AX  25286.43739173  .00002644  00000-0  19632-3 0  9995
2 46715  53.0538 182.6592 0001374  94.0617 266.0529 15.06405855274938
Epoch: 2025-10-13T10:29Z
TLE epoch observation values (Epoch: 2025-10-13T10:29:50.645Z)
Latitude
-0.00003°
Longitude
2.95798°
Altitude
548.138 km
Speed
7.589 km/s
True Right ascension
12h 10m 38s
True Declination
0° 00' 00"
Sunlit
Object was in daylight at epoch
Visualization orbit readout
Latitude
Unknown
Longitude
Unknown
Altitude
Unknown
Speed
Unknown
Apparent Right ascension
Unknown
Apparent Declination
Unknown
Sunlit
N/A
Visualization observer readout
Local Sidereal Time
22:10:13
Azimuth
Unknown
Elevation
Unknown
Doppler factor
Unknown
Orbital elements
Apogee altitude
548.416 km
Perigee altitude
546.513 km
Semi-major axis
6,925.601 km
Eccentricity
0.00014
Inclination
53.0538°
RAAN
182.6592°
Arg. of periapsis
94.0617°
True anomaly
266.03719°
Mean anomaly
266.0529°
Eccentric anomaly
266.04505°
Mean motion
3.7658 °/min
Orbital period
95.6 mins
BSTAR
0.00019632
Loading maneuver chart data...
Computing Atmospheric mass density...
Loading historical data...
Loading historical data...
Loading historical data...
Loading historical data...
Loading historical data...
Loading historical data...
Loading historical data...

Documentation

Showing up to 5 results
|